SHIYAN 12 01 (SY-12 01)

Last updated on Thu Nov 21 2024 00:02:44 GMT+0000 (Coordinated Universal Time)

1 50321U 21129A 24325.74983013 -.00000328 00000+0 00000+0 0 9999 2 50321 2.1896 88.2524 0002441 237.7515 139.1012 1.00103199 10764
UTC large
Height (km)
Speed (km/s)
/
Latitude / Longitude
Inclination (degrees)
Orbital Period (minutes)
Azimuth
Elevation
Range (km)
Doppler Factor

Next 0 passes for location: London (51.5072 / 0.1276)

Sorry there are no passes over London.